User: anonymous
Location: Wildcat Hills Observatory
(41.6350°N, 103.6812°W)
Time: 12:20:31
(UTC-06:00)
Language:

Cosmos 1634 Rocket - Orbit

View from above orbital plane
View from above orbital plane
View from above satellite
View from above satellite

Ground track
Ground track

The orbit data is extracted from the following two-line orbital elements,

1 15598U 85022B   14265.11393801  .00000021  00000-0  57303-5 0  7331
2 15598 082.9358 129.6884 0022562 026.6604 127.8483 13.76490983483024
Epoch (UTC): 22 September 2014 02:44:04
Eccentricity: 0.0022562
inclination: 82.9358°
perigee height: 960 km
apogee height: 993 km
right ascension of ascending node: 129.6884°
argument of perigee: 26.6604°
revolutions per day: 13.76490983
mean anomaly at epoch: 127.8483°
orbit number at epoch: 48302

The dashed part of the orbit path shows where the satellite is in the earth's shadow,  

DLR